Location: New York
(40.7127°N, 74.0060°W)
Time: 06:45:43
(UTC-04:00)

CUTE 1.7 + AOD 2 - Visible Passes

Search period start: 03 October 2024 00:00
Search period end: 13 October 2024 00:00
Orbit: 564 x 576 km, 97.8° (Epoch: 02 October)

Date Brightness Start Highest point End Pass type
(mag) Time Alt. Az. Time Alt. Az. Time Alt. Az.
03 Oct ? 04:10:56 10° NNE 04:13:10 28° NE 04:13:10 28° NE visible
03 Oct ? 05:47:11 10° NNW 05:49:18 15° WNW 05:49:18 15° WNW visible
04 Oct ? 04:12:44 10° NNE 04:14:54 28° NE 04:14:54 28° NE visible
04 Oct ? 05:49:07 10° NNW 05:51:02 15° WNW 05:51:02 15° WNW visible
05 Oct ? 04:14:30 10° NNE 04:16:35 27° NE 04:16:35 27° NE visible
05 Oct ? 05:51:01 10° NNW 05:52:42 14° WNW 05:52:42 14° WNW visible
06 Oct ? 04:16:14 10° NNE 04:18:14 26° NE 04:18:14 26° NE visible
06 Oct ? 05:52:52 10° NW 05:54:20 13° NW 05:54:20 13° NW visible
07 Oct ? 04:17:56 10° NNE 04:19:49 25° NNE 04:19:49 25° NNE visible
07 Oct ? 05:54:42 10° NW 05:55:55 13° NW 05:55:55 13° NW visible
08 Oct ? 04:19:34 10° NNE 04:21:22 24° NNE 04:21:22 24° NNE visible
08 Oct ? 05:56:29 10° NW 05:57:28 12° NW 05:57:28 12° NW visible
09 Oct ? 04:21:11 10° NNE 04:22:52 23° NNE 04:22:52 23° NNE visible
09 Oct ? 05:58:15 10° NW 05:58:57 11° NW 05:58:57 11° NW visible
10 Oct ? 04:22:44 10° NNE 04:24:18 22° NNE 04:24:18 22° NNE visible
10 Oct ? 05:59:57 10° NW 06:00:24 11° NW 06:00:24 11° NW visible
11 Oct ? 04:24:15 10° NNE 04:25:42 21° NNE 04:25:42 21° NNE visible
11 Oct ? 06:01:41 10° NW 06:01:48 10° NW 06:01:48 10° NW visible
12 Oct ? 04:25:44 10° NNE 04:27:04 20° NNE 04:27:04 20° NNE visible
